Total_Precipitation_Accumulation
1.18 1.49 2.23 3.28 4.31 3.70 2.80 2.42 1.98 1.63 1.27 1.08 1.01 1.07 1.27 1.50 1.98 2.77 3.07 2.82 2.07 1.94 2.39 3.32 3.59 3.34 3.07 2.67 2.60 2.70 2.79 3.04 3.07 2.82 2.54 2.26 2.05 1.95 1.99 1.93 1.93 1.92 1.94 1.97 1.86 1.86 1.81 1.82 1.75
1.12 2.03 2.92 4.15 4.23 3.12 2.71 2.45 2.02 1.41 1.03 0.77 0.67 0.88 1.05 1.00 1.18 1.99 2.92 2.82 1.88 1.65 1.94 2.58 3.17 3.07 2.84 2.58 2.56 2.64 2.67 2.69 2.70 2.41 2.11 1.99 1.92 1.86 1.80 1.89 1.97 1.91 1.78 1.71 1.68 1.83 1.78 1.69 1.64
1.28 2.27 3.14 3.68 3.02 2.60 2.55 2.24 1.73 1.21 0.84 0.69 0.61 0.67 0.92 1.26 1.55 2.26 2.65 2.00 1.54 1.36 1.78 2.52 3.05 2.81 2.58 2.43 2.44 2.46 2.54 2.50 2.43 2.29 2.07 1.91 1.86 1.81 1.81 1.94 2.01 1.84 1.64 1.47 1.54 1.65 1.64 1.55 1.56
1.73 2.65 3.01 2.79 2.28 1.90 1.85 1.78 1.29 1.10 0.80 0.56 0.55 0.71 0.94 1.47 1.83 2.26 2.25 1.65 1.37 1.36 1.70 2.10 2.49 2.31 2.18 2.20 2.24 2.20 2.07 2.05 2.23 2.28 2.14 1.99 1.84 1.71 1.66 1.79 1.85 1.68 1.51 1.40 1.41 1.50 1.47 1.43 1.46
2.06 2.83 2.92 2.35 1.93 1.69 1.48 1.25 1.02 1.01 0.92 0.72 0.58 0.98 1.51 1.80 1.93 1.98 1.92 1.56 1.39 1.59 1.91 1.99 2.22 2.11 2.09 2.08 2.10 2.01 2.02 2.12 2.25 2.24 2.15 2.05 1.79 1.59 1.58 1.56 1.54 1.38 1.33 1.33 1.44 1.50 1.35 1.29 1.31
2.53 2.78 3.16 2.48 1.99 1.68 1.51 1.16 0.89 0.84 0.79 0.69 0.68 1.01 1.71 2.06 1.99 1.93 1.84 1.67 1.50 1.51 1.69 1.83 2.14 2.10 1.98 1.88 2.00 1.98 2.06 2.33 2.42 2.26 2.14 2.10 1.82 1.62 1.48 1.46 1.49 1.28 1.18 1.24 1.32 1.36 1.26 1.20 1.29
2.68 2.87 2.70 2.07 1.89 1.96 1.54 0.99 0.89 0.87 0.84 0.72 0.63 0.98 1.67 2.11 1.80 1.59 1.61 1.55 1.48 1.40 1.42 1.39 1.47 1.65 1.70 1.78 1.95 2.03 2.21 2.37 2.37 2.17 2.07 2.01 1.69 1.45 1.33 1.31 1.25 1.15 1.14 1.25 1.29 1.37 1.37 1.27 1.31
1.81 2.03 2.08 1.92 1.90 1.88 1.30 0.82 0.72 0.72 0.78 0.54 0.52 0.88 1.52 1.77 1.51 1.49 1.46 1.45 1.47 1.38 1.31 1.14 1.17 1.36 1.52 1.64 1.81 2.01 2.18 2.18 2.14 1.97 1.90 1.77 1.52 1.32 1.32 1.25 1.23 1.18 1.19 1.35 1.45 1.42 1.34 1.25 1.24
1.68 2.03 2.32 2.11 1.82 1.58 1.09 0.87 0.65 0.49 0.54 0.46 0.44 0.55 0.83 1.09 1.21 1.38 1.45 1.40 1.53 1.41 1.26 1.18 1.08 1.09 1.28 1.47 1.56 1.87 2.00 1.99 1.79 1.71 1.76 1.57 1.26 1.12 1.19 1.21 1.39 1.32 1.29 1.32 1.38 1.35 1.23 1.11 1.03
1.67 2.14 2.15 1.53 1.17 1.11 1.01 0.88 0.71 0.67 0.72 0.63 0.57 0.55 0.65 0.86 1.07 1.19 1.27 1.32 1.35 1.34 1.15 1.08 1.05 1.00 0.97 1.04 1.34 1.76 1.59 1.51 1.27 1.23 1.25 1.27 1.24 1.21 1.01 1.14 1.44 1.43 1.33 1.25 1.27 1.25 1.02 0.77 0.69
1.35 1.51 1.35 1.22 0.89 0.76 0.90 0.84 0.65 0.72 0.84 0.66 0.64 0.61 0.62 0.75 0.85 0.96 1.02 1.04 1.07 1.14 1.06 0.99 0.94 0.90 0.90 1.00 1.10 1.30 1.35 1.34 1.19 1.06 1.04 1.18 1.17 1.05 0.92 0.87 0.98 1.08 1.10 0.96 0.93 0.93 0.74 0.68 0.71
1.20 1.10 0.94 0.89 0.71 0.72 0.91 0.79 0.68 0.79 0.76 0.53 0.45 0.45 0.57 0.68 0.72 0.75 0.82 0.96 0.99 1.05 1.07 1.03 0.97 0.96 0.91 0.85 0.80 0.86 0.91 0.96 0.99 0.96 0.92 1.05 1.07 1.01 0.98 0.95 0.87 0.88 0.91 0.95 0.90 0.87 0.77 0.74 0.75
1.11 1.02 0.83 0.67 0.70 0.72 0.80 0.84 0.74 0.75 0.63 0.55 0.47 0.54 0.62 0.65 0.65 0.66 0.72 0.84 0.92 0.98 1.05 1.01 0.93 0.90 0.90 0.84 0.75 0.73 0.83 0.87 0.95 1.00 0.93 0.92 1.00 1.02 0.97 0.88 0.89 0.87 0.85 0.87 0.87 0.78 0.75 0.77 0.74
1.04 0.95 0.86 0.72 0.70 0.74 0.81 0.86 0.81 0.89 0.70 0.62 0.54 0.58 0.60 0.62 0.64 0.67 0.69 0.78 0.82 0.83 1.00 1.04 0.97 0.98 0.96 0.88 0.79 0.77 0.85 0.96 0.96 0.84 0.79 0.81 0.86 0.92 0.99 0.97 0.96 0.93 0.91 0.99 1.00 0.81 0.83 0.89 0.86
0.92 0.97 0.94 0.85 0.82 0.80 0.84 1.08 0.98 0.90 0.79 0.77 0.66 0.57 0.57 0.58 0.57 0.64 0.64 0.71 0.79 0.86 1.00 1.02 1.00 1.11 1.04 0.94 0.92 0.83 0.85 0.91 0.95 0.90 0.84 0.86 0.88 0.89 0.99 1.05 1.06 1.01 0.97 1.03 1.32 1.20 0.96 0.92 0.94
1.04 1.15 1.30 0.92 0.80 0.84 0.99 1.23 0.92 0.90 0.89 0.96 0.79 0.65 0.60 0.60 0.58 0.56 0.56 0.67 0.73 0.90 1.00 1.12 1.03 1.12 1.12 1.05 1.04 0.98 0.97 1.03 1.03 1.01 1.02 0.97 0.95 0.95 1.06 1.12 1.04 1.05 1.11 1.21 1.44 1.54 1.27 1.03 1.00
1.20 1.28 1.25 0.97 0.73 0.76 0.88 1.00 0.82 0.79 0.77 0.82 0.77 0.68 0.67 0.57 0.54 0.50 0.50 0.58 0.66 0.83 0.97 1.15 1.14 1.10 1.18 1.23 1.24 1.15 1.12 1.15 1.14 1.08 1.04 1.04 1.06 1.13 1.20 1.22 1.17 1.17 1.20 1.34 1.36 1.60 1.63 1.40 1.26
1.13 1.02 0.98 0.87 0.75 0.75 0.77 0.68 0.67 0.67 0.69 0.68 0.71 0.65 0.58 0.53 0.53 0.49 0.45 0.49 0.56 0.74 0.90 1.08 1.22 1.33 1.41 1.44 1.49 1.46 1.34 1.26 1.29 1.29 1.26 1.28 1.36 1.30 1.34 1.38 1.39 1.49 1.51 1.55 1.50 1.68 1.81 1.62 1.57
0.77 0.78 0.83 0.72 0.61 0.64 0.59 0.53 0.57 0.61 0.66 0.60 0.62 0.61 0.49 0.44 0.48 0.47 0.42 0.46 0.51 0.63 0.75 0.95 1.33 1.76 1.95 1.84 1.82 1.88 1.92 1.85 1.74 1.71 1.69 1.76 1.76 1.75 1.78 1.76 1.74 1.72 1.70 1.79 1.79 2.07 2.44 1.98 1.72
0.72 0.78 0.82 0.74 0.52 0.51 0.51 0.46 0.47 0.53 0.55 0.52 0.49 0.51 0.46 0.42 0.40 0.38 0.36 0.41 0.46 0.64 0.81 0.95 1.27 1.73 1.95 2.07 2.16 2.34 2.49 2.34 2.20 2.20 2.16 2.22 2.24 2.41 2.34 2.31 2.31 2.24 2.27 2.25 2.17 2.32 2.69 2.34 2.06
0.72 0.74 0.74 0.68 0.52 0.48 0.47 0.50 0.45 0.50 0.45 0.44 0.44 0.44 0.40 0.33 0.32 0.33 0.34 0.39 0.44 0.58 0.73 0.89 1.12 1.43 1.78 2.05 2.27 2.52 2.74 2.71 2.59 2.44 2.41 2.47 2.54 2.68 2.77 2.74 2.80 2.66 2.56 2.62 2.53 2.51 2.74 2.82 2.52
0.75 0.51 0.47 0.47 0.61 0.63 0.49 0.74 0.53 0.52 0.48 0.43 0.43 0.42 0.40 0.34 0.33 0.37 0.36 0.39 0.44 0.53 0.65 0.83 1.06 1.31 1.56 1.77 2.14 2.56 2.84 2.93 2.84 2.74 2.70 2.69 2.69 2.72 2.92 2.93 3.04 2.90 2.81 2.80 2.69 2.51 2.71 3.07 3.03
0.57 0.44 0.44 0.47 0.56 0.53 0.38 0.53 0.53 0.46 0.49 0.46 0.43 0.40 0.38 0.35 0.36 0.40 0.42 0.47 0.53 0.59 0.66 0.81 0.98 1.24 1.49 1.70 2.03 2.42 2.67 2.86 2.98 2.80 2.67 2.69 2.70 2.71 2.85 3.00 3.10 2.96 2.86 2.81 2.91 2.82 2.79 2.76 2.81
0.45 0.49 0.48 0.51 0.58 0.63 0.31 0.45 0.58 0.44 0.41 0.43 0.40 0.34 0.36 0.39 0.43 0.47 0.58 0.65 0.70 0.67 0.72 0.85 0.98 1.15 1.31 1.45 1.66 1.89 2.22 2.44 2.74 2.70 2.62 2.73 2.70 2.61 2.55 2.73 2.97 2.90 2.90 2.91 3.00 3.06 3.00 3.00 3.04
0.44 0.70 0.93 0.95 0.91 0.61 0.26 0.41 0.57 0.43 0.36 0.36 0.38 0.36 0.38 0.42 0.46 0.55 0.71 0.80 0.86 0.77 0.75 0.83 1.00 1.09 1.18 1.28 1.37 1.51 1.75 1.86 2.20 2.51 2.47 2.37 2.41 2.46 2.51 2.56 2.56 2.57 2.67 2.83 3.05 3.02 2.94 2.93 3.03
0.38 0.61 0.99 1.14 0.99 0.62 0.41 0.59 0.64 0.48 0.40 0.35 0.34 0.36 0.40 0.46 0.53 0.72 0.90 0.99 1.00 0.91 0.85 0.90 1.07 1.16 1.19 1.22 1.27 1.36 1.45 1.48 1.64 1.85 1.95 1.94 1.98 2.21 2.34 2.44 2.42 2.42 2.50 2.61 2.73 2.76 2.81 2.76 2.73
0.36 0.43 0.49 0.72 0.68 0.69 0.63 0.72 0.65 0.44 0.42 0.42 0.44 0.49 0.59 0.67 0.73 0.89 1.06 1.16 1.08 0.97 0.89 0.95 1.08 1.23 1.26 1.29 1.35 1.43 1.43 1.37 1.45 1.45 1.56 1.73 1.75 1.81 1.95 2.04 2.15 2.27 2.33 2.42 2.59 2.64 2.64 2.65 2.65
0.27 0.34 0.52 0.78 1.01 1.01 0.79 0.79 0.80 0.66 0.59 0.54 0.58 0.63 0.75 0.85 0.93 1.04 1.21 1.26 1.15 1.02 0.94 1.00 1.11 1.23 1.43 1.56 1.50 1.46 1.53 1.56 1.76 1.76 1.59 1.53 1.67 1.71 1.75 1.81 1.90 2.07 2.17 2.26 2.34 2.45 2.56 2.55 2.56
0.32 0.43 0.60 0.81 0.86 1.15 1.28 1.15 0.89 0.81 0.77 0.79 0.82 0.85 0.91 1.03 1.04 1.05 1.18 1.27 1.18 1.01 0.95 0.95 1.01 1.13 1.26 1.30 1.35 1.32 1.41 1.52 1.78 1.97 1.92 1.73 1.68 1.67 1.66 1.64 1.69 1.84 1.95 2.06 2.19 2.26 2.25 2.25 2.39
0.40 0.53 0.77 1.19 1.13 1.03 1.25 1.21 0.85 0.77 0.80 0.80 0.81 0.81 0.85 0.95 0.95 1.01 1.07 1.05 0.98 0.86 0.80 0.81 0.83 0.96 1.10 1.12 1.18 1.26 1.29 1.39 1.51 1.62 1.65 1.58 1.46 1.40 1.44 1.49 1.48 1.55 1.75 1.89 1.91 1.95 1.94 1.97 2.08